Location: B?lite?ti
(46.2833°N, 22.7333°E)
Time: 04:48:33
(UTC+00:00)

CZ-4C R/B - Pass Details

Date: 24 January 2021
Orbit: 407 x 488 km, 97.7° (Epoch: 26 February)

Event Time Altitude Azimuth Distance (km) Brightness Sun altitude
Rises 16:07:01 0° 6° (N) 2,350 6.3 -8.0°
Reaches altitude 10° 16:09:03 10° 359° (N) 1,486 5.4 -8.3°
Maximum altitude 16:12:03 41° 288° (WNW) 613 4.1 -8.8°
Drops below altitude 10° 16:15:04 10° 216° (SW) 1,491 6.4 -9.3°
Sets 16:17:07 0° 209° (SSW) 2,359 7.3 -9.6°
